Tracking 18843 objects as of 20-November-2017
HD Live streaming from Space Station
objects crossing your sky now

PLEM COVER

Track PLEM COVER now!
10-day predictions


NORAD ID: 27611
Int'l Code: 2002-058G
Perigee: 527.5 km
Apogee: 573.3 km
Inclination: 64.5 °
Period: 95.5 minutes
Semi major axis: 6921 km
RCS: 3.6273 m2 (large)
Launch date: December 20, 2002
Source: Commonwealth of Independent States (former USSR) (CIS)
Launch site: TYURATAM MISSILE AND SPACE COMPLEX (TTMTR)

Note: This is SATELLITE DEBRIS
aabbcc
Your satellite tracking list
Your tracking list is empty




NASA's NSSDC Master Catalog

Two Line Element Set (TLE):
1 27611U 02058G   17323.87754879 +.00002390 +00000-0 +16619-3 0  9993
2 27611 064.5416 291.2715 0033092 289.1442 070.6095 15.07692904810985
Source of the keplerian elements: AFSPC